Regional Weather Roundup
Issued by NWS

Home | Current Version | Previous Version | Text Only | Print | Product List | Glossary On
Versions: 1 2 3 4 5 6 7 8 9 10 11 12 13 14 15 16 17 18 19 20 21 22 23 24 25 26 27 28 29 30 31 32 33 34 35 36 37 38 39 40 41 42 43 44 45 46 47 48 49 50
000
ASUS43 KLSX 311810
RWRMO

WEATHER SUMMARY FOR MISSOURI
NATIONAL WEATHER SERVICE SPRINGFIELD MO
100 PM CDT MON AUG 31 2015

NOTE: "FAIR" INDICATES FEW OR NO CLOUDS BELOW 12,000 FEET WITH NO
       SIGNIFICANT WEATHER AND/OR OBSTRUCTIONS TO VISIBILITY.
       CURRENT SKY AND/OR WEATHER CONDITIONS ARE NOT AVAILABLE FOR
       CHILLICOTHE AND FARMINGTON.

MOZ001>031-035>038-043-044-053-054-311900-
...NORTHERN AND WESTERN MISSOURI...

CITY           SKY/WX    TMP DP  RH WIND       PRES   REMARKS
KANSAS CTY INT MOSUNNY   86  71  60 S8        29.99F HX  91
6HR MIN TEMP:  68; 6HR MAX TEMP:  86;

KANSAS C DTWN  SUNNY     88  70  55 S9        29.98F HX  93
6HR MIN TEMP:  73; 6HR MAX TEMP:  88;

LEE`S SUMMIT   SUNNY     85  71  63 VRB7      30.00F HX  90
6HR MIN TEMP:  72; 6HR MAX TEMP:  85;

ST JOSEPH      MOSUNNY   84  72  67 S9        29.97F
6HR MIN TEMP:  63; 6HR MAX TEMP:  84;

CHILLICOTHE      N/A     86  73  65 VRB7      30.00F HX  93
6HR MIN TEMP:  70; 6HR MAX TEMP:  87;

KIRKSVILLE     SUNNY     88  70  55 S13       30.02F HX  93
6HR MIN TEMP:  68; 6HR MAX TEMP:  88;


$$
MOZ066>068-077>081-088>096-101>105-311900-
...SOUTHWEST MISSOURI...

CITY           SKY/WX    TMP DP  RH WIND       PRES   REMARKS
SPRINGFIELD    SUNNY     86  69  56 S12       30.06F HX  90
6HR MIN TEMP:  71; 6HR MAX TEMP:  86;

JOPLIN         SUNNY     87  69  54 S10       30.03F HX  91
6HR MIN TEMP:  70; 6HR MAX TEMP:  87;


$$
MOZ032>034-039>042-045>050-055>058-069>072-311900-
...CENTRAL MISSOURI...

CITY           SKY/WX    TMP DP  RH WIND       PRES   REMARKS
COLUMBIA       SUNNY     87  72  60 S12       30.03F HX  93
6HR MIN TEMP:  71; 6HR MAX TEMP:  87;

JEFFERSON CITY SUNNY     88  69  53 S9        30.02F HX  92
6HR MIN TEMP:  70; 6HR MAX TEMP:  88;

ROLLA          SUNNY     88  69  53 S12       30.05F HX  92
6HR MIN TEMP:  71; 6HR MAX TEMP:  88;

SEDALIA        SUNNY     89  70  53 S12G20    30.03F HX  94
6HR MIN TEMP:  70; 6HR MAX TEMP:  89;

WHITEMAN AFB   SUNNY     88  70  54 SW13      30.00F HX  93
WARRENSBURG    SUNNY     86  68  54 S8G16     30.01S
OSAGE BEACH    SUNNY     90  66  45 S10       30.04F HX  92

$$
MOZ051-052-059>065-311900-
...EAST CENTRAL MISSOURI...

CITY           SKY/WX    TMP DP  RH WIND       PRES   REMARKS
ST LOUIS INTL  PTSUNNY   87  72  60 SE7       30.06F HX  93
6HR MIN TEMP:  75; 6HR MAX TEMP:  87;

SPIRIT OF STL  PTSUNNY   86  74  67 VRB3      30.03F HX  94
6HR MIN TEMP:  71; 6HR MAX TEMP:  87;

ST CHARLES     MOSUNNY   87  73  62 VRB6      30.03F HX  94
6HR MIN TEMP:  70; 6HR MAX TEMP:  87;


$$
MOZ072>076-082>087-097>100-106>115-311900-
...SOUTH CENTRAL AND SOUTHEAST MISSOURI...

CITY           SKY/WX    TMP DP  RH WIND       PRES   REMARKS
CAPE GIRARDEAU SUNNY     85  71  63 VRB5      30.08F HX  90
6HR MIN TEMP:  68; 6HR MAX TEMP:  85;

FARMINGTON     SUNNY     84  72  65 S7        30.11F
6HR MIN TEMP:  70; 6HR MAX TEMP:  84;

POPLAR BLUFF   SUNNY     85  73  67 CALM      30.07F HX  91
6HR MIN TEMP:  72; 6HR MAX TEMP:  85;

WEST PLAINS    SUNNY     85  69  58 S7        30.11F
6HR MIN TEMP:  70; 6HR MAX TEMP:  85;


$$



USA.gov is the U.S. government's official web portal to all federal, state and local government web resources and services.